Plovdiv, Bulgaria

2:11 AM EET on January 20, 2019 (GMT +0200)
Plovdiv

Weather History for LBPD - January, 2019

Change the Weather History Date:

Saturday, January 19, 2019

  Actual Average Record
Temperature  
Mean Temperature 37 °F -  
Max Temperature 48 °F - - ()
Min Temperature 26 °F - - ()
Degree Days  
Heating Degree Days 28    
Moisture  
Dew Point 31 °F    
Average Humidity 79    
Maximum Humidity 100    
Minimum Humidity 53    
Precipitation  
Precipitation 0.00 in - - ()
Sea Level Pressure  
Sea Level Pressure 30.08 in    
Wind  
Wind Speed 3 mph ()    
Max Wind Speed 12 mph    
Max Gust Speed -    
Visibility 6.1 miles    
Events      
T = Trace of Precipitation, MM = Missing Value Source: Averaged Metar Reports

Daily Weather History Graph

Daily Weather History Graph

Search for Another Location

Airport or City:

Astronomy

Jan. 19, 2019 Rise Set
Actual Time 7:45 AM EET 5:18 PM EET
Civil Twilight 7:14 AM EET 5:49 PM EET
Nautical Twilight 6:40 AM EET 6:23 PM EET
Astronomical Twilight 6:06 AM EET 6:56 PM EET
Moon 3:30 PM EET (1/19) 5:49 AM EET (1/19)
Length of Visible Light 10h 34m
Length of Day
9h 33m
Waxing Gibbous, 95% of the Moon is Illuminated
Jan 19
Waxing Gibbous
Jan 21
Full
Jan 27
Last Quarter
Feb 4
New
Feb 13
First Quarter

Hourly Weather History & Observations

Time (EET) Temp. Windchill Dew Point Humidity Pressure Visibility Wind Dir Wind Speed Gust Speed Precip Events Conditions
12:00 AM 28.4 °F 22.2 °F 24.8 °F 86% 30.04 in 6.2 mi WSW 5.8 mph - N/A   Unknown
12:30 AM 30.2 °F 26.7 °F 26.6 °F 86% 30.04 in 6.2 mi SW 3.5 mph - N/A   Unknown
1:00 AM 32.0 °F - 26.6 °F 80% 30.04 in 6.2 mi Calm Calm - N/A   Partly Cloudy
1:30 AM 35.6 °F - 26.6 °F 70% 30.04 in 6.2 mi Variable 1.2 mph - N/A   Scattered Clouds
2:00 AM 28.4 °F 24.6 °F 26.6 °F 93% 30.04 in 6.2 mi SSW 3.5 mph - N/A   Partly Cloudy
2:30 AM 33.8 °F - 28.4 °F 81% 30.04 in 6.2 mi Calm Calm - N/A   Mostly Cloudy
3:00 AM 30.2 °F 26.7 °F 26.6 °F 86% 30.04 in 6.2 mi WSW 3.5 mph - N/A   Unknown
3:30 AM 32.0 °F 27.5 °F 26.6 °F 80% 30.04 in 6.2 mi West 4.6 mph - N/A   Unknown
4:00 AM 30.2 °F 26.7 °F 28.4 °F 93% 30.04 in 6.2 mi SSW 3.5 mph - N/A   Unknown
4:30 AM 33.8 °F - 26.6 °F 75% 30.04 in 6.2 mi Calm Calm - N/A   Unknown
5:00 AM 30.2 °F - 28.4 °F 93% 30.04 in 6.2 mi Calm Calm - N/A   Unknown
5:30 AM 28.4 °F - 26.6 °F 93% 30.04 in 6.2 mi Variable 2.3 mph - N/A   Unknown
6:00 AM 30.2 °F - 26.6 °F 86% 30.04 in 6.2 mi Variable 1.2 mph - N/A   Unknown
6:30 AM 26.6 °F - 26.6 °F 100% 30.04 in 6.2 mi Calm Calm - N/A   Unknown
7:00 AM 28.4 °F 23.3 °F 26.6 °F 93% 30.04 in 6.2 mi South 4.6 mph - N/A   Unknown
7:30 AM 30.2 °F 26.7 °F 26.6 °F 86% 30.06 in 6.2 mi SSE 3.5 mph - N/A   Scattered Clouds
8:00 AM 32.0 °F - 28.4 °F 87% 30.06 in 6.2 mi Calm Calm - N/A   Unknown
8:30 AM 33.8 °F - 30.2 °F 87% 30.06 in 6.2 mi Calm Calm - N/A   Mostly Cloudy
9:00 AM 35.6 °F - 32.0 °F 87% 30.06 in 6.2 mi Calm Calm - N/A   Overcast
9:30 AM 35.6 °F 32.8 °F 32.0 °F 87% 30.06 in 6.2 mi ENE 3.5 mph - N/A   Overcast
10:00 AM 35.6 °F 31.7 °F 32.0 °F 87% 30.09 in 5.0 mi NE 4.6 mph - N/A   Mostly Cloudy
10:30 AM 37.4 °F 34.9 °F 30.2 °F 75% 30.09 in 3.7 mi North 3.5 mph - N/A   Scattered Clouds
11:30 AM 41.0 °F 39.0 °F 30.2 °F 65% 30.12 in 6.2 mi NW 3.5 mph - N/A   Unknown
12:00 PM 42.8 °F 41.1 °F 30.2 °F 61% 30.09 in 6.2 mi North 3.5 mph - N/A   Scattered Clouds
12:30 PM 42.8 °F 41.1 °F 30.2 °F 61% 30.09 in 6.2 mi Variable 3.5 mph - N/A   Mostly Cloudy
1:00 PM 44.6 °F 43.1 °F 30.2 °F 57% 30.09 in 6.2 mi NNE 3.5 mph - N/A   Mostly Cloudy
1:30 PM 46.4 °F - 30.2 °F 53% 30.09 in 6.2 mi Calm Calm - N/A   Mostly Cloudy
2:00 PM 46.4 °F - 30.2 °F 53% 30.06 in 6.2 mi Calm Calm - N/A   Partly Cloudy
2:30 PM 48.2 °F - 32.0 °F 54% 30.06 in 6.2 mi Calm Calm - N/A   Mostly Cloudy
3:00 PM 48.2 °F - 32.0 °F 54% 30.06 in 6.2 mi East 6.9 mph - N/A   Scattered Clouds
3:30 PM 46.4 °F 41.9 °F 33.8 °F 62% 30.09 in 6.2 mi East 9.2 mph - N/A   Mostly Cloudy
4:00 PM 44.6 °F 40.2 °F 32.0 °F 61% 30.09 in 6.2 mi ESE 8.1 mph - N/A   Mostly Cloudy
4:30 PM 44.6 °F 40.7 °F 32.0 °F 61% 30.09 in 6.2 mi SE 6.9 mph - N/A   Mostly Cloudy
5:00 PM 44.6 °F 42.2 °F 33.8 °F 66% 30.09 in 6.2 mi SSE 4.6 mph - N/A   Mostly Cloudy
5:30 PM 42.8 °F 40.1 °F 33.8 °F 70% 30.09 in 6.2 mi SSE 4.6 mph - N/A   Scattered Clouds
6:00 PM 42.8 °F 41.1 °F 33.8 °F 70% 30.09 in 6.2 mi South 3.5 mph - N/A   Mostly Cloudy
6:30 PM 42.8 °F - 33.8 °F 70% 30.09 in 6.2 mi Variable 2.3 mph - N/A   Overcast
7:00 PM 42.8 °F - 33.8 °F 70% 30.12 in 6.2 mi East 2.3 mph - N/A   Overcast
7:30 PM 42.8 °F 38.6 °F 35.6 °F 76% 30.12 in 6.2 mi ESE 6.9 mph - N/A   Overcast
8:00 PM 41.0 °F 34.3 °F 35.6 °F 81% 30.12 in 6.2 mi East 11.5 mph - N/A   Overcast
8:30 PM 41.0 °F 35.2 °F 37.4 °F 87% 30.12 in 6.2 mi SE 9.2 mph - N/A   Overcast
9:00 PM 41.0 °F 34.3 °F 37.4 °F 87% 30.12 in 6.2 mi ESE 11.5 mph - N/A   Overcast
9:30 PM 39.2 °F 33.0 °F 37.4 °F 93% 30.12 in 6.2 mi ESE 9.2 mph - N/A   Overcast
10:00 PM 39.2 °F 33.0 °F 39.2 °F 100% 30.15 in 6.2 mi ESE 9.2 mph - N/A   Overcast
10:30 PM 39.2 °F 32.5 °F 39.2 °F 100% 30.15 in 5.6 mi ESE 10.4 mph - N/A   Overcast
11:00 PM 39.2 °F 33.0 °F 39.2 °F 100% 30.15 in 5.6 mi ESE 9.2 mph - N/A   Overcast
11:30 PM 39.2 °F 33.0 °F 39.2 °F 100% 30.12 in 4.3 mi ESE 9.2 mph - N/A   Overcast